START_TIME,STEP,MOV.,H8,t_acc.,H43,t_acc.,M25,t_acc.,H9,t_acc.
1989-08-27T03:00:30.090 ,2,0,0.,12.0,0.,12.0,0.,12.0,0.,12.0
1989-08-27T03:00:42.090 ,2,0,0.,12.0,0.,12.0,0.,12.0,0.,12.0
1989-08-27T03:00:54.090 ,3,0,0.,12.0,0.,12.0,0.,12.0,0.,12.0
1989-08-27T03:01:06.090 ,3,0,0.,12.0,0.,12.0,0.,12.0,0.,12.0
1989-08-27T03:01:18.090 ,3,0,0.,12.0,0.,12.0,0.,12.0,0.,12.0
1989-08-27T03:01:30.090 ,3,0,0.,12.0,0.,12.0,0.,12.0,0.,12.0
1989-08-27T03:01:42.090 ,4,0,0.,12.0,0.,12.0,0.,12.0,0.,12.0
1989-08-27T03:01:54.090 ,4,0,0.,12.0,0.,12.0,0.,12.0,0.,12.0
1989-08-27T03:02:06.090 ,4,0,0.,12.0,0.,12.0,0.,12.0,0.,12.0
1989-08-27T03:02:18.090 ,4,0,0.,12.0,0.,12.0,0.,12.0,0.,12.0
1989-08-27T03:02:30.090 ,5,0,0.,12.0,0.,12.0,0.,12.0,0.,12.0
1989-08-27T03:02:42.090 ,5,0,0.,12.0,0.,12.0,0.,12.0,0.,12.0
1989-08-27T03:02:54.090 ,5,0,0.,12.0,0.,12.0,0.,12.0,0.,12.0
1989-08-27T03:03:06.090 ,5,0,0.,12.0,0.,12.0,0.,12.0,0.,12.0
1989-08-27T03:03:18.090 ,6,0,0.,12.0,0.,12.0,0.,12.0,0.,12.0
1989-08-27T03:03:30.090 ,6,0,0.,12.0,0.,12.0,0.,12.0,0.,12.0
1989-08-27T03:03:42.090 ,6,0,0.,12.0,0.,12.0,0.,12.0,0.,12.0
1989-08-27T03:03:54.090 ,6,0,0.,12.0,0.,12.0,0.,12.0,0.,12.0
1989-08-27T03:04:06.090 ,7,0,0.,12.0,0.,12.0,0.,12.0,0.,12.0
1989-08-27T03:04:18.090 ,7,0,0.,12.0,0.,12.0,0.,12.0,0.,12.0
1989-08-27T03:04:30.090 ,7,0,0.,12.0,0.,12.0,0.,12.0,0.,12.0
1989-08-27T03:04:42.090 ,7,0,0.,12.0,0.,12.0,0.,12.0,0.,12.0
1989-08-27T03:04:54.090 ,7,0,0.,12.0,0.,12.0,0.,12.0,0.,12.0
1989-08-27T03:05:06.090 ,7,0,0.,12.0,0.,12.0,0.,12.0,0.,12.0
1989-08-27T03:05:18.090 ,7,0,0.,12.0,0.,12.0,0.,12.0,0.,12.0
1989-08-27T03:05:30.090 ,7,0,0.,12.0,0.,12.0,0.,12.0,0.,12.0
1989-08-27T03:05:42.090 ,6,0,0.,12.0,0.,12.0,0.,12.0,0.,12.0
1989-08-27T03:05:54.090 ,6,0,0.,12.0,0.,12.0,0.,12.0,0.,12.0
1989-08-27T03:06:06.090 ,6,0,0.,12.0,0.,12.0,0.,12.0,0.,12.0
1989-08-27T03:06:18.090 ,6,0,0.,12.0,0.,12.0,0.,12.0,0.,12.0
1989-08-27T03:06:30.090 ,5,0,0.,12.0,0.,12.0,0.,12.0,0.,12.0
1989-08-27T03:06:42.090 ,5,0,0.,12.0,0.,12.0,0.,12.0,0.,12.0
1989-08-27T03:06:54.090 ,5,0,0.,12.0,0.,12.0,0.,12.0,0.,12.0
1989-08-27T03:07:06.090 ,5,0,0.,12.0,0.,12.0,0.,12.0,0.,12.0
1989-08-27T03:07:18.090 ,4,0,0.,12.0,0.,12.0,0.,12.0,0.,12.0
1989-08-27T03:07:30.090 ,4,0,0.,12.0,0.,12.0,0.,12.0,0.,12.0
1989-08-27T03:07:42.090 ,4,0,0.,12.0,0.,12.0,0.,12.0,0.,12.0
1989-08-27T03:07:54.090 ,4,0,0.,12.0,0.,12.0,0.,12.0,0.,12.0
1989-08-27T03:08:06.090 ,3,0,0.,12.0,0.,12.0,0.,12.0,0.,12.0
1989-08-27T03:08:18.090 ,3,0,0.,12.0,0.,12.0,0.,12.0,0.,12.0
1989-08-27T03:08:30.090 ,3,0,0.,12.0,0.,12.0,0.,12.0,0.,12.0
1989-08-27T03:08:42.090 ,3,0,0.,12.0,0.,12.0,0.,12.0,0.,12.0
1989-08-27T03:08:54.090 ,2,0,0.,12.0,0.,12.0,0.,12.0,0.,12.0
1989-08-27T03:09:06.090 ,2,0,0.,12.0,0.,12.0,0.,12.0,0.,12.0
1989-08-27T03:09:18.090 ,2,0,0.,12.0,0.,12.0,0.,12.0,0.,12.0
1989-08-27T03:09:30.090 ,2,0,0.,12.0,0.,12.0,0.,12.0,0.,12.0
1989-08-27T03:09:42.090 ,1,0,0.,12.0,0.,12.0,0.,12.0,0.,12.0
1989-08-27T03:09:54.090 ,1,0,0.,12.0,0.,12.0,0.,12.0,0.,12.0
1989-08-27T03:10:06.090 ,1,0,0.,12.0,0.,12.0,0.,12.0,0.,12.0
1989-08-27T03:10:18.090 ,1,0,0.,12.0,0.,12.0,0.,12.0,0.,12.0
1989-08-27T03:10:30.090 ,0,0,0.,12.0,0.,12.0,0.,12.0,0.,12.0
1989-08-27T03:10:42.090 ,0,0,0.,12.0,0.,12.0,0.,12.0,0.,12.0
1989-08-27T03:10:54.090 ,0,0,0.,12.0,0.,12.0,0.,12.0,0.,12.0
1989-08-27T03:11:06.090 ,0,0,0.,12.0,0.,12.0,0.,12.0,0.,12.0
1989-08-27T03:11:18.090 ,0,0,0.,12.0,0.,12.0,0.,12.0,0.,12.0
1989-08-27T03:11:30.090 ,0,0,0.,12.0,0.,12.0,0.,12.0,0.,12.0
1989-08-27T03:11:42.090 ,0,0,0.,12.0,0.,12.0,0.,12.0,0.,12.0
1989-08-27T03:11:54.090 ,0,0,0.,12.0,0.,12.0,0.,12.0,0.,12.0
1989-08-27T03:12:06.090 ,1,0,0.,12.0,0.,12.0,0.,12.0,0.,12.0
1989-08-27T03:12:18.090 ,1,0,0.,12.0,0.,12.0,0.,12.0,0.,12.0
1989-08-27T03:12:30.090 ,1,0,0.,12.0,0.,12.0,0.,12.0,0.,12.0
1989-08-27T03:12:42.090 ,1,0,0.,12.0,0.,12.0,0.,12.0,0.,12.0
1989-08-27T03:12:54.090 ,2,0,0.,12.0,0.,12.0,0.,12.0,0.,12.0
1989-08-27T03:13:06.090 ,2,0,0.,12.0,0.,12.0,0.,12.0,0.,12.0
1989-08-27T03:13:18.090 ,2,0,0.,12.0,0.,12.0,0.,12.0,0.,12.0
1989-08-27T03:13:30.090 ,2,0,0.,12.0,0.,12.0,0.,12.0,0.,12.0
1989-08-27T03:13:42.090 ,3,0,0.,12.0,0.,12.0,0.,12.0,0.,12.0
1989-08-27T03:13:54.090 ,3,0,0.,12.0,0.,12.0,0.,12.0,0.,12.0
1989-08-27T03:14:06.090 ,3,0,0.,12.0,0.,12.0,0.,12.0,0.,12.0
1989-08-27T03:14:18.090 ,3,0,0.,12.0,0.,12.0,0.,12.0,0.,12.0
1989-08-27T03:14:30.090 ,4,0,0.,12.0,0.,12.0,0.,12.0,0.,12.0
1989-08-27T03:14:42.090 ,4,0,0.,12.0,0.,12.0,0.,12.0,0.,12.0
1989-08-27T03:14:54.090 ,4,0,0.,12.0,0.,12.0,0.,12.0,0.,12.0
1989-08-27T03:15:06.090 ,4,0,0.,12.0,0.,12.0,0.,12.0,0.,12.0
1989-08-27T03:15:18.090 ,5,0,0.,12.0,0.,12.0,0.,12.0,0.,12.0
1989-08-27T03:15:30.090 ,5,0,0.,12.0,0.,12.0,0.,12.0,0.,12.0
1989-08-27T03:15:42.090 ,5,0,0.,12.0,0.,12.0,0.,12.0,0.,12.0
1989-08-27T03:15:54.090 ,5,0,0.,12.0,0.,12.0,0.,12.0,0.,12.0
1989-08-27T03:16:06.090 ,6,0,0.,12.0,0.,12.0,0.,12.0,0.,12.0
1989-08-27T03:16:18.090 ,6,0,0.,12.0,0.,12.0,0.,12.0,0.,12.0
1989-08-27T03:16:30.090 ,6,0,0.,12.0,0.,12.0,0.,12.0,0.,12.0
1989-08-27T03:16:42.090 ,6,0,0.,12.0,0.,12.0,0.,12.0,0.,12.0
1989-08-27T03:16:54.090 ,7,0,0.,12.0,0.,12.0,0.,12.0,0.,12.0
1989-08-27T03:17:06.090 ,7,0,0.,12.0,0.,12.0,0.,12.0,0.,12.0
1989-08-27T03:17:18.090 ,7,0,0.,12.0,0.,12.0,0.,12.0,0.,12.0
1989-08-27T03:17:30.090 ,7,0,0.,12.0,0.,12.0,0.,12.0,0.,12.0
1989-08-27T03:17:42.090 ,7,0,0.,12.0,0.,12.0,0.,12.0,0.,12.0
1989-08-27T03:17:54.090 ,7,0,0.,12.0,0.,12.0,0.,12.0,0.,12.0
1989-08-27T03:18:06.090 ,7,0,0.,12.0,0.,12.0,0.,12.0,0.,12.0
1989-08-27T03:18:18.090 ,7,0,0.,12.0,0.,12.0,0.,12.0,0.,12.0
1989-08-27T03:18:30.090 ,6,0,0.,12.0,0.,12.0,0.,12.0,0.,12.0
1989-08-27T03:18:42.090 ,6,0,0.,12.0,0.,12.0,0.,12.0,0.,12.0
1989-08-27T03:18:54.090 ,6,0,0.,12.0,0.,12.0,0.,12.0,0.,12.0
1989-08-27T03:19:06.090 ,6,0,0.,12.0,0.,12.0,0.,12.0,0.,12.0
1989-08-27T03:19:18.090 ,5,0,0.,12.0,0.,12.0,0.,12.0,0.,12.0
1989-08-27T03:19:30.090 ,5,0,0.,12.0,0.,12.0,0.,12.0,0.,12.0
1989-08-27T03:19:42.090 ,5,0,0.,12.0,0.,12.0,0.,12.0,0.,12.0
1989-08-27T03:19:54.090 ,5,0,0.,12.0,0.,12.0,0.,12.0,0.,12.0
1989-08-27T03:20:06.090 ,4,0,0.,12.0,0.,12.0,0.,12.0,0.,12.0
1989-08-27T03:20:18.090 ,4,0,0.,12.0,0.,12.0,0.,12.0,0.,12.0
1989-08-27T03:20:30.090 ,4,0,0.,12.0,0.,12.0,0.,12.0,0.,12.0
1989-08-27T03:20:42.090 ,4,0,0.,12.0,0.,12.0,0.,12.0,0.,12.0
1989-08-27T03:20:54.090 ,3,0,0.,12.0,0.,12.0,0.,12.0,0.,12.0
1989-08-27T03:21:06.090 ,3,0,0.,12.0,0.,12.0,0.,12.0,0.,12.0
1989-08-27T03:21:18.090 ,3,0,0.,12.0,0.,12.0,0.,12.0,0.,12.0
1989-08-27T03:21:30.090 ,3,0,0.,12.0,0.,12.0,0.,12.0,0.,12.0
1989-08-27T03:21:42.090 ,2,0,0.,12.0,0.,12.0,0.,12.0,0.,12.0
1989-08-27T03:21:54.090 ,2,0,0.,12.0,0.,12.0,0.,12.0,0.,12.0
1989-08-27T03:22:06.090 ,2,0,0.,12.0,0.,12.0,0.,12.0,0.,12.0
1989-08-27T03:22:18.090 ,2,0,0.,12.0,0.,12.0,0.,12.0,0.,12.0
1989-08-27T03:22:30.090 ,1,0,0.,12.0,0.,12.0,0.,12.0,0.,12.0
1989-08-27T03:22:42.090 ,1,0,0.,12.0,0.,12.0,0.,12.0,0.,12.0
1989-08-27T03:22:54.090 ,1,0,0.,12.0,0.,12.0,0.,12.0,0.,12.0
1989-08-27T03:23:06.090 ,1,0,0.,12.0,0.,12.0,0.,12.0,0.,12.0
1989-08-27T03:23:18.090 ,0,0,0.,12.0,0.,12.0,0.,12.0,0.,12.0
1989-08-27T03:23:30.090 ,0,0,0.,12.0,0.,12.0,0.,12.0,0.,12.0
1989-08-27T03:23:42.090 ,0,0,0.,12.0,0.,12.0,0.,12.0,0.,12.0
1989-08-27T03:23:54.090 ,0,0,0.,12.0,0.,12.0,0.,12.0,0.,12.0
1989-08-27T03:24:06.090 ,0,0,0.,12.0,0.,12.0,0.,12.0,0.,12.0
1989-08-27T03:24:18.090 ,0,0,,0,,0,,0,,0
1989-08-27T03:24:30.090 ,0,0,,0,,0,,0,,0
1989-08-27T03:24:42.090 ,0,0,,0,,0,,0,,0
1989-08-27T03:24:13.890 ,0,0,,0,,0,,0,,0
1989-08-27T03:24:25.890 ,0,0,0.,12.0,0.,12.0,0.,12.0,0.,12.0
1989-08-27T03:24:30.090 ,0,0,0.,12.0,0.,12.0,0.,12.0,0.,12.0
1989-08-27T03:24:42.090 ,0,0,,0,,0,,0,,0
1989-08-27T03:25:25.290 ,0,0,,0,,0,,0,,0
1989-08-27T03:25:37.290 ,0,0,0.,12.0,0.,12.0,0.,12.0,0.,12.0
1989-08-27T03:25:42.090 ,2,0,0.,12.0,0.,12.0,0.,12.0,0.,12.0
1989-08-27T03:25:54.090 ,2,0,0.,12.0,0.,12.0,0.,12.0,0.,12.0
1989-08-27T03:26:06.090 ,2,0,0.,12.0,0.,12.0,0.,12.0,0.,12.0
1989-08-27T03:26:18.090 ,2,0,0.,12.0,0.,12.0,0.,12.0,0.,12.0
1989-08-27T03:26:30.090 ,3,0,0.,12.0,0.,12.0,0.,12.0,0.,12.0
1989-08-27T03:26:42.090 ,3,0,0.,12.0,0.,12.0,0.,12.0,0.,12.0
1989-08-27T03:26:54.090 ,3,0,0.,12.0,0.,12.0,0.,12.0,0.,12.0
1989-08-27T03:27:06.090 ,3,0,0.,12.0,0.,12.0,0.,12.0,0.,12.0
1989-08-27T03:27:18.090 ,4,0,0.,12.0,0.,12.0,0.,12.0,0.,12.0
1989-08-27T03:27:30.090 ,4,0,0.,12.0,0.,12.0,0.,12.0,0.,12.0
1989-08-27T03:27:42.090 ,4,0,0.,12.0,0.,12.0,0.,12.0,0.,12.0
1989-08-27T03:27:54.090 ,4,0,0.,12.0,0.,12.0,0.,12.0,0.,12.0
1989-08-27T03:28:06.090 ,5,0,0.,12.0,0.,12.0,0.,12.0,0.,12.0
1989-08-27T03:28:18.090 ,5,0,0.,12.0,0.,12.0,0.,12.0,0.,12.0
1989-08-27T03:28:30.090 ,5,0,0.,12.0,0.,12.0,0.,12.0,0.,12.0
1989-08-27T03:28:42.090 ,5,0,0.,12.0,0.,12.0,0.,12.0,0.,12.0
1989-08-27T03:28:54.090 ,6,0,0.,12.0,0.,12.0,0.,12.0,0.,12.0
1989-08-27T03:29:06.090 ,6,0,0.,12.0,0.,12.0,0.,12.0,0.,12.0
1989-08-27T03:29:18.090 ,6,0,0.,12.0,0.,12.0,0.,12.0,0.,12.0
1989-08-27T03:29:30.090 ,6,0,0.,12.0,0.,12.0,0.,12.0,0.,12.0
1989-08-27T03:29:42.090 ,7,0,0.,12.0,0.,12.0,0.,12.0,0.,12.0
1989-08-27T03:29:54.090 ,7,0,0.,12.0,0.,12.0,0.,12.0,0.,12.0
1989-08-27T03:30:06.090 ,7,0,0.,12.0,0.,12.0,0.,12.0,0.,12.0
1989-08-27T03:30:18.090 ,7,0,0.,12.0,0.,12.0,0.,12.0,0.,12.0
1989-08-27T03:30:30.090 ,7,0,0.,12.0,0.,12.0,0.,12.0,0.,12.0
1989-08-27T03:30:42.090 ,7,0,0.,12.0,0.,12.0,0.,12.0,0.,12.0
1989-08-27T03:30:54.090 ,7,0,0.,12.0,0.,12.0,0.,12.0,0.,12.0
1989-08-27T03:31:06.090 ,7,0,0.,12.0,0.,12.0,0.,12.0,0.,12.0
1989-08-27T03:31:18.090 ,6,0,0.,12.0,0.,12.0,0.,12.0,0.,12.0
1989-08-27T03:31:30.090 ,6,0,0.,12.0,0.,12.0,0.,12.0,0.,12.0
1989-08-27T03:31:42.090 ,6,0,0.,12.0,0.,12.0,0.,12.0,0.,12.0
1989-08-27T03:31:54.090 ,6,0,0.,12.0,0.,12.0,0.,12.0,0.,12.0
1989-08-27T03:32:06.090 ,5,0,0.,12.0,0.,12.0,0.,12.0,0.,12.0
1989-08-27T03:32:18.090 ,5,0,0.,12.0,0.,12.0,0.,12.0,0.,12.0
1989-08-27T03:32:30.090 ,5,0,0.,12.0,0.,12.0,0.,12.0,0.,12.0
1989-08-27T03:32:42.090 ,5,0,0.,12.0,0.,12.0,0.,12.0,0.,12.0
1989-08-27T03:32:54.090 ,4,0,0.,12.0,0.,12.0,0.,12.0,0.,12.0
1989-08-27T03:33:06.090 ,4,0,0.,12.0,0.,12.0,0.,12.0,0.,12.0
1989-08-27T03:33:18.090 ,4,0,0.,12.0,0.,12.0,0.,12.0,0.,12.0
1989-08-27T03:33:30.090 ,4,0,0.,12.0,0.,12.0,0.,12.0,0.,12.0
1989-08-27T03:33:42.090 ,3,0,0.,12.0,0.,12.0,0.,12.0,0.,12.0
1989-08-27T03:33:54.090 ,3,0,0.,12.0,0.,12.0,0.,12.0,0.,12.0
1989-08-27T03:34:06.090 ,3,0,0.,12.0,0.,12.0,0.,12.0,0.,12.0
1989-08-27T03:34:18.090 ,3,0,0.,12.0,0.,12.0,0.,12.0,0.,12.0
1989-08-27T03:34:30.090 ,2,0,0.,12.0,0.,12.0,0.,12.0,0.,12.0
1989-08-27T03:34:42.090 ,2,0,0.,12.0,0.,12.0,0.,12.0,0.,12.0
1989-08-27T03:34:54.090 ,2,0,0.,12.0,0.,12.0,0.,12.0,0.,12.0
1989-08-27T03:35:06.090 ,2,0,0.,12.0,0.,12.0,0.,12.0,0.,12.0
1989-08-27T03:35:18.090 ,1,0,0.,12.0,0.,12.0,0.,12.0,0.,12.0
1989-08-27T03:35:30.090 ,1,0,0.,12.0,0.,12.0,0.,12.0,0.,12.0
1989-08-27T03:35:42.090 ,1,0,0.,12.0,0.,12.0,0.,12.0,0.,12.0
1989-08-27T03:35:54.090 ,1,0,0.,12.0,0.,12.0,0.,12.0,0.,12.0
1989-08-27T03:36:06.090 ,0,0,0.,12.0,0.,12.0,0.,12.0,0.,12.0
1989-08-27T03:36:18.090 ,0,0,0.,12.0,0.,12.0,0.,12.0,0.,12.0
1989-08-27T03:36:30.090 ,0,0,0.,12.0,0.,12.0,0.,12.0,0.,12.0
1989-08-27T03:36:42.090 ,0,0,0.,12.0,0.,12.0,0.,12.0,0.,12.0
1989-08-27T03:36:54.090 ,0,0,0.,12.0,0.,12.0,0.,12.0,0.,12.0
1989-08-27T03:37:06.090 ,0,0,0.,12.0,0.,12.0,0.,12.0,0.,12.0
1989-08-27T03:37:18.090 ,0,0,0.,12.0,0.,12.0,0.,12.0,0.,12.0
1989-08-27T03:37:30.090 ,0,0,0.,12.0,0.,12.0,0.,12.0,0.,12.0
1989-08-27T03:37:42.090 ,1,0,0.,12.0,0.,12.0,0.,12.0,0.,12.0
1989-08-27T03:37:54.090 ,1,0,0.,12.0,0.,12.0,0.,12.0,0.,12.0
1989-08-27T03:38:06.090 ,1,0,0.,12.0,0.,12.0,0.,12.0,0.,12.0
1989-08-27T03:38:18.090 ,1,0,0.,12.0,0.,12.0,0.,12.0,0.,12.0
1989-08-27T03:38:30.090 ,2,0,0.,12.0,0.,12.0,0.,12.0,0.,12.0
1989-08-27T03:38:42.090 ,2,0,0.,12.0,0.,12.0,0.,12.0,0.,12.0
1989-08-27T03:38:54.090 ,2,0,0.,12.0,0.,12.0,0.,12.0,0.,12.0
1989-08-27T03:39:06.090 ,2,0,0.,12.0,0.,12.0,0.,12.0,0.,12.0
1989-08-27T03:39:18.090 ,3,0,0.,12.0,0.,12.0,0.,12.0,0.,12.0
1989-08-27T03:39:30.090 ,3,0,0.,12.0,0.,12.0,0.,12.0,0.,12.0
1989-08-27T03:39:42.090 ,3,0,0.,12.0,0.,12.0,0.,12.0,0.,12.0
1989-08-27T03:39:54.090 ,3,0,0.,12.0,0.,12.0,0.,12.0,0.,12.0
1989-08-27T03:40:06.090 ,4,0,0.,12.0,0.,12.0,0.,12.0,0.,12.0
1989-08-27T03:40:18.090 ,4,0,0.,12.0,0.,12.0,0.,12.0,0.,12.0
1989-08-27T03:40:30.090 ,4,0,0.,12.0,0.,12.0,0.,12.0,0.,12.0
1989-08-27T03:40:42.090 ,4,0,0.,12.0,0.,12.0,0.,12.0,0.,12.0
1989-08-27T03:40:54.090 ,5,0,0.,12.0,0.,12.0,0.,12.0,0.,12.0
1989-08-27T03:41:06.090 ,5,0,0.,12.0,0.,12.0,0.,12.0,0.,12.0
1989-08-27T03:41:18.090 ,5,0,0.,12.0,0.,12.0,0.,12.0,0.,12.0
1989-08-27T03:41:30.090 ,5,0,0.,12.0,0.,12.0,0.,12.0,0.,12.0
1989-08-27T03:41:42.090 ,6,0,0.,12.0,0.,12.0,0.,12.0,0.,12.0
1989-08-27T03:41:54.090 ,6,0,0.,12.0,0.,12.0,0.,12.0,0.,12.0
1989-08-27T03:42:06.090 ,6,0,0.,12.0,0.,12.0,0.,12.0,0.,12.0
1989-08-27T03:42:18.090 ,6,0,0.,12.0,0.,12.0,0.,12.0,0.,12.0
1989-08-27T03:42:30.090 ,7,0,0.,12.0,0.,12.0,0.,12.0,0.,12.0
1989-08-27T03:42:42.090 ,7,0,0.,12.0,0.,12.0,0.,12.0,0.,12.0
1989-08-27T03:42:54.090 ,7,0,0.,12.0,0.,12.0,0.,12.0,0.,12.0
1989-08-27T03:43:06.090 ,7,0,0.,12.0,0.,12.0,0.,12.0,0.,12.0
1989-08-27T03:43:18.090 ,7,0,0.,12.0,0.,12.0,0.,12.0,0.,12.0
1989-08-27T03:43:30.090 ,7,0,0.,12.0,0.,12.0,0.,12.0,0.,12.0
1989-08-27T03:43:42.090 ,7,0,0.,12.0,0.,12.0,0.,12.0,0.,12.0
1989-08-27T03:43:54.090 ,7,0,0.,12.0,0.,12.0,0.,12.0,0.,12.0
1989-08-27T03:44:06.090 ,6,0,0.,12.0,0.,12.0,0.,12.0,0.,12.0
1989-08-27T03:44:18.090 ,6,0,0.,12.0,0.,12.0,0.,12.0,0.,12.0
1989-08-27T03:44:30.090 ,6,0,0.,12.0,0.,12.0,0.,12.0,0.,12.0
1989-08-27T03:44:42.090 ,6,0,0.,12.0,0.,12.0,0.,12.0,0.,12.0
1989-08-27T03:44:54.090 ,5,0,0.,12.0,0.,12.0,0.,12.0,0.,12.0
1989-08-27T03:45:06.090 ,5,0,0.,12.0,0.,12.0,0.,12.0,0.,12.0
1989-08-27T03:45:18.090 ,5,0,0.,12.0,0.,12.0,0.,12.0,0.,12.0
1989-08-27T03:45:30.090 ,5,0,0.,12.0,0.,12.0,0.,12.0,0.,12.0
1989-08-27T03:45:42.090 ,4,0,0.,12.0,0.,12.0,0.,12.0,0.,12.0
1989-08-27T03:45:54.090 ,4,0,0.,12.0,0.,12.0,0.,12.0,0.,12.0
1989-08-27T03:46:06.090 ,4,0,0.,12.0,0.,12.0,0.,12.0,0.,12.0
1989-08-27T03:46:18.090 ,4,0,0.,12.0,0.,12.0,0.,12.0,0.,12.0
1989-08-27T03:46:30.090 ,3,0,0.,12.0,0.,12.0,0.,12.0,0.,12.0
1989-08-27T03:46:42.090 ,3,0,0.,12.0,0.,12.0,0.,12.0,0.,12.0
1989-08-27T03:46:54.090 ,3,0,0.,12.0,0.,12.0,0.,12.0,0.,12.0
1989-08-27T03:47:06.090 ,3,0,0.,12.0,0.,12.0,0.,12.0,0.,12.0
1989-08-27T03:47:18.090 ,2,0,0.,12.0,0.,12.0,0.,12.0,0.,12.0
1989-08-27T03:47:30.090 ,2,0,0.,12.0,0.,12.0,0.,12.0,0.,12.0
1989-08-27T03:47:42.090 ,2,0,0.,12.0,0.,12.0,0.,12.0,0.,12.0
1989-08-27T03:47:54.090 ,2,0,0.,12.0,0.,12.0,0.,12.0,0.,12.0
1989-08-27T03:48:06.090 ,1,0,0.,12.0,0.,12.0,0.,12.0,0.,12.0
1989-08-27T03:48:18.090 ,1,0,0.,12.0,0.,12.0,0.,12.0,0.,12.0
1989-08-27T03:48:30.090 ,1,0,0.,12.0,0.,12.0,0.,12.0,0.,12.0
1989-08-27T03:48:42.090 ,1,0,0.,12.0,0.,12.0,0.,12.0,0.,12.0
1989-08-27T03:48:54.090 ,0,0,0.,12.0,0.,12.0,0.,12.0,0.,12.0
1989-08-27T03:49:06.090 ,0,0,0.,12.0,0.,12.0,0.,12.0,0.,12.0
1989-08-27T03:49:18.090 ,0,0,0.,12.0,0.,12.0,0.,12.0,0.,12.0
1989-08-27T03:49:30.090 ,0,0,0.,12.0,0.,12.0,0.,12.0,0.,12.0
1989-08-27T03:49:42.090 ,0,0,0.,12.0,0.,12.0,0.,12.0,0.,12.0
1989-08-27T03:49:54.090 ,0,0,0.,12.0,0.,12.0,0.,12.0,0.,12.0
1989-08-27T03:50:06.090 ,0,0,0.,12.0,0.,12.0,0.,12.0,0.,12.0
1989-08-27T03:50:18.090 ,0,0,0.,12.0,0.,12.0,0.,12.0,0.,12.0
1989-08-27T03:50:30.090 ,1,0,0.,12.0,0.,12.0,0.,12.0,0.,12.0
1989-08-27T03:50:42.090 ,1,0,0.,12.0,0.,12.0,0.,12.0,0.,12.0
1989-08-27T03:50:54.090 ,1,0,0.,12.0,0.,12.0,0.,12.0,0.,12.0
1989-08-27T03:51:06.090 ,1,0,0.,12.0,0.,12.0,0.,12.0,0.,12.0
1989-08-27T03:51:18.090 ,2,0,0.,12.0,0.,12.0,0.,12.0,0.,12.0
1989-08-27T03:51:30.090 ,2,0,0.,12.0,0.,12.0,0.,12.0,0.,12.0
1989-08-27T03:51:42.090 ,2,0,0.,12.0,0.,12.0,0.,12.0,0.,12.0
1989-08-27T03:51:54.090 ,2,0,0.,12.0,0.,12.0,0.,12.0,0.,12.0
1989-08-27T03:52:06.090 ,3,0,0.,12.0,0.,12.0,0.,12.0,0.,12.0
1989-08-27T03:52:18.090 ,3,0,0.,12.0,0.,12.0,0.,12.0,0.,12.0
1989-08-27T03:52:30.090 ,3,0,0.,12.0,0.,12.0,0.,12.0,0.,12.0
1989-08-27T03:52:42.090 ,3,0,0.,12.0,0.,12.0,0.,12.0,0.,12.0
1989-08-27T03:52:54.090 ,4,0,0.,12.0,0.,12.0,0.,12.0,0.,12.0
1989-08-27T03:53:06.090 ,4,0,0.,12.0,0.,12.0,0.,12.0,0.,12.0
1989-08-27T03:53:18.090 ,4,0,0.,12.0,0.,12.0,0.,12.0,0.,12.0
1989-08-27T03:53:30.090 ,4,0,0.,12.0,0.,12.0,0.,12.0,0.,12.0
1989-08-27T03:53:42.090 ,5,0,0.,12.0,0.,12.0,0.,12.0,0.,12.0
1989-08-27T03:53:54.090 ,5,0,0.,12.0,0.,12.0,0.,12.0,0.,12.0
1989-08-27T03:54:06.090 ,5,0,0.,12.0,0.,12.0,0.,12.0,0.,12.0
1989-08-27T03:54:18.090 ,5,0,0.,12.0,0.,12.0,0.,12.0,0.,12.0
1989-08-27T03:54:30.090 ,6,0,0.,12.0,0.,12.0,0.,12.0,0.,12.0
1989-08-27T03:54:42.090 ,6,0,0.,12.0,0.,12.0,0.,12.0,0.,12.0
1989-08-27T03:54:54.090 ,6,0,0.,12.0,0.,12.0,0.,12.0,0.,12.0
1989-08-27T03:55:06.090 ,6,0,0.,12.0,0.,12.0,0.,12.0,0.,12.0
1989-08-27T03:55:18.090 ,7,0,0.,12.0,0.,12.0,0.,12.0,0.,12.0
1989-08-27T03:55:30.090 ,7,0,0.,12.0,0.,12.0,0.,12.0,0.,12.0
1989-08-27T03:55:42.090 ,7,0,0.,12.0,0.,12.0,0.,12.0,0.,12.0
1989-08-27T03:55:54.090 ,7,0,0.,12.0,0.,12.0,0.,12.0,0.,12.0
1989-08-27T03:56:06.090 ,7,0,0.,12.0,0.,12.0,0.,12.0,0.,12.0
1989-08-27T03:56:18.090 ,7,0,0.,12.0,0.,12.0,0.,12.0,0.,12.0
1989-08-27T03:56:30.090 ,7,0,0.,12.0,0.,12.0,0.,12.0,0.,12.0
1989-08-27T03:56:42.090 ,7,0,0.,12.0,0.,12.0,0.,12.0,0.,12.0
1989-08-27T03:56:54.090 ,6,0,0.,12.0,0.,12.0,0.,12.0,0.,12.0
1989-08-27T03:57:06.090 ,6,0,0.,12.0,0.,12.0,0.,12.0,0.,12.0
1989-08-27T03:57:18.090 ,6,0,0.,12.0,0.,12.0,0.,12.0,0.,12.0
1989-08-27T03:57:30.090 ,6,0,0.,12.0,0.,12.0,0.,12.0,0.,12.0
1989-08-27T03:57:42.090 ,5,0,0.,12.0,0.,12.0,0.,12.0,0.,12.0
1989-08-27T03:57:54.090 ,5,0,0.,12.0,0.,12.0,0.,12.0,0.,12.0
1989-08-27T03:58:06.090 ,5,0,0.,12.0,0.,12.0,0.,12.0,0.,12.0
1989-08-27T03:58:18.090 ,5,0,0.,12.0,0.,12.0,0.,12.0,0.,12.0
1989-08-27T03:58:30.090 ,4,0,0.,12.0,0.,12.0,0.,12.0,0.,12.0
1989-08-27T03:58:42.090 ,4,0,0.,12.0,0.,12.0,0.,12.0,0.,12.0
1989-08-27T03:58:54.090 ,4,0,0.,12.0,0.,12.0,0.,12.0,0.,12.0
1989-08-27T03:59:06.090 ,4,0,0.,12.0,0.,12.0,0.,12.0,0.,12.0
1989-08-27T03:59:18.090 ,3,0,0.,12.0,0.,12.0,0.,12.0,0.,12.0
1989-08-27T03:59:30.090 ,3,0,0.,12.0,0.,12.0,0.,12.0,0.,12.0
1989-08-27T03:59:42.090 ,3,0,0.,12.0,0.,12.0,0.,12.0,0.,12.0
1989-08-27T03:59:54.090 ,3,0,0.,12.0,0.,12.0,0.,12.0,0.,12.0
1989-08-27T04:00:06.090 ,2,0,0.,12.0,0.,12.0,0.,12.0,0.,12.0
1989-08-27T04:00:18.090 ,2,0,0.,12.0,0.,12.0,0.,12.0,0.,12.0
1989-08-27T04:00:30.090 ,2,0,0.,12.0,0.,12.0,0.,12.0,0.,12.0
1989-08-27T04:00:42.090 ,2,0,0.,12.0,0.,12.0,0.,12.0,0.,12.0
1989-08-27T04:00:54.090 ,1,0,0.,12.0,0.,12.0,0.,12.0,0.,12.0
1989-08-27T04:01:06.090 ,1,0,0.,12.0,0.,12.0,0.,12.0,0.,12.0
1989-08-27T04:01:18.090 ,1,0,0.,12.0,0.,12.0,0.,12.0,0.,12.0
1989-08-27T04:01:30.090 ,1,0,0.,12.0,0.,12.0,0.,12.0,0.,12.0
1989-08-27T04:01:42.090 ,0,0,0.,12.0,0.,12.0,0.,12.0,0.,12.0
1989-08-27T04:01:54.090 ,0,0,0.,12.0,0.,12.0,0.,12.0,0.,12.0
1989-08-27T04:02:06.090 ,0,0,0.,12.0,0.,12.0,0.,12.0,0.,12.0
1989-08-27T04:02:18.090 ,0,0,0.,12.0,0.,12.0,0.,12.0,0.,12.0
1989-08-27T04:02:30.090 ,0,0,0.,12.0,0.,12.0,0.,12.0,0.,12.0
1989-08-27T04:02:42.090 ,0,0,0.,12.0,0.,12.0,0.,12.0,0.,12.0
1989-08-27T04:02:54.090 ,0,0,0.,12.0,0.,12.0,0.,12.0,0.,12.0
1989-08-27T04:03:06.090 ,0,0,0.,12.0,0.,12.0,0.,12.0,0.,12.0
1989-08-27T04:03:18.090 ,1,0,0.,12.0,0.,12.0,0.,12.0,0.,12.0
1989-08-27T04:03:30.090 ,1,0,0.,12.0,0.,12.0,0.,12.0,0.,12.0
1989-08-27T04:03:42.090 ,1,0,0.,12.0,0.,12.0,0.,12.0,0.,12.0
1989-08-27T04:03:54.090 ,1,0,0.,12.0,0.,12.0,0.,12.0,0.,12.0
1989-08-27T04:04:06.090 ,2,0,0.,12.0,0.,12.0,0.,12.0,0.,12.0
1989-08-27T04:04:18.090 ,2,0,0.,12.0,0.,12.0,0.,12.0,0.,12.0
1989-08-27T04:04:30.090 ,2,0,0.,12.0,0.,12.0,0.,12.0,0.,12.0
1989-08-27T04:04:42.090 ,2,0,0.,12.0,0.,12.0,0.,12.0,0.,12.0
1989-08-27T04:04:54.090 ,3,0,0.,12.0,0.,12.0,0.,12.0,0.,12.0
1989-08-27T04:05:06.090 ,3,0,0.,12.0,0.,12.0,0.,12.0,0.,12.0
1989-08-27T04:05:18.090 ,3,0,0.,12.0,0.,12.0,0.,12.0,0.,12.0
1989-08-27T04:05:30.090 ,3,0,0.,12.0,0.,12.0,0.,12.0,0.,12.0
1989-08-27T04:05:42.090 ,4,0,0.,12.0,0.,12.0,0.,12.0,0.,12.0
1989-08-27T04:05:54.090 ,4,0,0.,12.0,0.,12.0,0.,12.0,0.,12.0
1989-08-27T04:06:06.090 ,4,0,0.,12.0,0.,12.0,0.,12.0,0.,12.0
1989-08-27T04:06:18.090 ,4,0,0.,12.0,0.,12.0,0.,12.0,0.,12.0
1989-08-27T04:06:30.090 ,5,0,0.,12.0,0.,12.0,0.,12.0,0.,12.0
1989-08-27T04:06:42.090 ,5,0,0.,12.0,0.,12.0,0.,12.0,0.,12.0
1989-08-27T04:06:54.090 ,5,0,0.,12.0,0.,12.0,0.,12.0,0.,12.0
1989-08-27T04:07:06.090 ,5,0,0.,12.0,0.,12.0,0.,12.0,0.,12.0
1989-08-27T04:07:18.090 ,6,0,0.,12.0,0.,12.0,0.,12.0,0.,12.0
1989-08-27T04:07:30.090 ,6,0,0.,12.0,0.,12.0,0.,12.0,0.,12.0
1989-08-27T04:07:42.090 ,6,0,0.,12.0,0.,12.0,0.,12.0,0.,12.0
1989-08-27T04:07:54.090 ,6,0,0.,12.0,0.,12.0,0.,12.0,0.,12.0
1989-08-27T04:08:06.090 ,7,0,0.,12.0,0.,12.0,0.,12.0,0.,12.0
1989-08-27T04:08:18.090 ,7,0,0.,12.0,0.,12.0,0.,12.0,0.,12.0
1989-08-27T04:08:30.090 ,7,0,0.,12.0,0.,12.0,0.,12.0,0.,12.0
1989-08-27T04:08:42.090 ,7,0,0.,12.0,0.,12.0,0.,12.0,0.,12.0
1989-08-27T04:08:54.090 ,7,0,0.,12.0,0.,12.0,0.,12.0,0.,12.0
1989-08-27T04:09:06.090 ,7,0,0.,12.0,0.,12.0,0.,12.0,0.,12.0
1989-08-27T04:09:18.090 ,7,0,0.,12.0,0.,12.0,0.,12.0,0.,12.0
1989-08-27T04:09:30.090 ,7,0,0.,12.0,0.,12.0,0.,12.0,0.,12.0
1989-08-27T04:09:42.090 ,6,0,0.,12.0,0.,12.0,0.,12.0,0.,12.0
1989-08-27T04:09:54.090 ,6,0,0.,12.0,0.,12.0,0.,12.0,0.,12.0
1989-08-27T04:10:06.090 ,6,0,0.,12.0,0.,12.0,0.,12.0,0.,12.0
1989-08-27T04:10:18.090 ,6,0,0.,12.0,0.,12.0,0.,12.0,0.,12.0
1989-08-27T04:10:30.090 ,5,0,0.,12.0,0.,12.0,0.,12.0,0.,12.0
1989-08-27T04:10:42.090 ,5,0,0.,12.0,0.,12.0,0.,12.0,0.,12.0
1989-08-27T04:10:54.090 ,5,0,0.,12.0,0.,12.0,0.,12.0,0.,12.0
1989-08-27T04:11:06.090 ,5,0,0.,12.0,0.,12.0,0.,12.0,0.,12.0
1989-08-27T04:11:18.090 ,4,0,0.,12.0,0.,12.0,0.,12.0,0.,12.0
1989-08-27T04:11:30.090 ,4,0,0.,12.0,0.,12.0,0.,12.0,0.,12.0
1989-08-27T04:11:42.090 ,4,0,0.,12.0,0.,12.0,0.,12.0,0.,12.0
1989-08-27T04:11:54.090 ,4,0,0.,12.0,0.,12.0,0.,12.0,0.,12.0
1989-08-27T04:12:06.090 ,3,0,0.,12.0,0.,12.0,0.,12.0,0.,12.0
1989-08-27T04:12:18.090 ,3,0,0.,12.0,0.,12.0,0.,12.0,0.,12.0
1989-08-27T04:12:30.090 ,3,0,0.,12.0,0.,12.0,0.,12.0,0.,12.0
1989-08-27T04:12:42.090 ,3,0,0.,12.0,0.,12.0,0.,12.0,0.,12.0
1989-08-27T04:12:54.090 ,2,0,0.,12.0,0.,12.0,0.,12.0,0.,12.0
1989-08-27T04:13:06.090 ,2,0,0.,12.0,0.,12.0,0.,12.0,0.,12.0
1989-08-27T04:13:18.090 ,2,0,0.,12.0,0.,12.0,0.,12.0,0.,12.0
1989-08-27T04:13:30.090 ,2,0,0.,12.0,0.,12.0,0.,12.0,0.,12.0
1989-08-27T04:13:42.090 ,1,0,0.,12.0,0.,12.0,0.,12.0,0.,12.0
1989-08-27T04:13:54.090 ,1,0,0.,12.0,0.,12.0,0.,12.0,0.,12.0
1989-08-27T04:14:06.090 ,1,0,0.,12.0,0.,12.0,0.,12.0,0.,12.0
1989-08-27T04:14:18.090 ,1,0,0.,12.0,0.,12.0,0.,12.0,0.,12.0
1989-08-27T04:14:30.090 ,0,0,0.,12.0,0.,12.0,0.,12.0,0.,12.0
1989-08-27T04:14:42.090 ,0,0,0.,12.0,0.,12.0,0.,12.0,0.,12.0
1989-08-27T04:14:54.090 ,0,0,0.,12.0,0.,12.0,0.,12.0,0.,12.0
1989-08-27T04:15:06.090 ,0,0,0.,12.0,0.,12.0,0.,12.0,0.,12.0
1989-08-27T04:15:18.090 ,0,0,0.,12.0,0.,12.0,0.,12.0,0.,12.0
1989-08-27T04:15:30.090 ,0,0,0.,12.0,0.,12.0,0.,12.0,0.,12.0
1989-08-27T04:15:42.090 ,0,0,0.,12.0,0.,12.0,0.,12.0,0.,12.0
1989-08-27T04:15:54.090 ,0,0,0.,12.0,0.,12.0,0.,12.0,0.,12.0
1989-08-27T04:16:06.090 ,1,0,0.,12.0,0.,12.0,0.,12.0,0.,12.0
1989-08-27T04:16:18.090 ,1,0,0.,12.0,0.,12.0,0.,12.0,0.,12.0
1989-08-27T04:16:30.090 ,1,0,0.,12.0,0.,12.0,0.,12.0,0.,12.0
1989-08-27T04:16:42.090 ,1,0,0.,12.0,0.,12.0,0.,12.0,0.,12.0
1989-08-27T04:16:54.090 ,2,0,0.,12.0,0.,12.0,0.,12.0,0.,12.0
1989-08-27T04:17:06.090 ,2,0,0.,12.0,0.,12.0,0.,12.0,0.,12.0
1989-08-27T04:17:18.090 ,2,0,0.,12.0,0.,12.0,0.,12.0,0.,12.0
1989-08-27T04:17:30.090 ,2,0,0.,12.0,0.,12.0,0.,12.0,0.,12.0